Reno, NV

11:33 PM PDT on October 21, 2017 (GMT -0700)
Reno-Tahoe International

Weather History for KRNO - April, 2014

Change the Weather History Date:

Tuesday, April 1, 2014

  Actual Average Record
Temperature  
Mean Temperature 38 °F 48 °F  
Max Temperature 48 °F 61 °F 88 °F (1966)
Min Temperature 28 °F 35 °F 15 °F (1970)
Degree Days  
Heating Degree Days 27 17  
Month to date heating degree days 27 17  
Since 1 July heating degree days 4121 4253  
Cooling Degree Days 0 0  
Month to date cooling degree days 0 0  
Year to date cooling degree days 0 0  
Moisture  
Dew Point 19 °F    
Average Humidity 42    
Maximum Humidity 58    
Minimum Humidity 26    
Precipitation  
Precipitation T in 0.02 in 1.04 in (1903)
Month to date precipitation T 0.02  
Year to date precipitation 1.15 2.83  
Snow  
Snow T in 0.00 in 3.50 in (1927)
Month to date snowfall T 0.0  
Since 1 July snowfall 6.2 21.0  
Snow Depth 0.00 in    
Sea Level Pressure  
Sea Level Pressure 29.77 in    
Wind  
Wind Speed 6 mph (North)    
Max Wind Speed 22 mph    
Max Gust Speed 28 mph    
Visibility 10 miles    
Events Rain    
T = Trace of Precipitation, MM = Missing Value Source: NWS Daily Summary

Daily Weather History Graph

Daily Weather History Graph

Search for Another Location

Airport or City:

Trip Planner

Search our weather history database for the weather conditions in past years. The results will help you decide how hot, cold, wet, or windy it might be!

Date:

Astronomy

Apr. 01, 2014 Rise Set
Actual Time 6:43 AM PDT 7:23 PM PDT
Civil Twilight 6:16 AM PDT 7:50 PM PDT
Nautical Twilight 5:44 AM PDT 8:22 PM PDT
Astronomical Twilight 5:11 AM PDT 8:55 PM PDT
Moon 7:49 AM PDT (4/1) 9:50 PM PDT (4/1)
Length of Visible Light 13h 34m
Length of Day
12h 39m
Waxing Crescent, 5% of the Moon is Illuminated
Apr 1
Waxing Crescent
Apr 7
First Quarter
Apr 15
Full
Apr 22
Last Quarter
Apr 28
New

Hourly Weather History & Observations

Time (PDT) Temp. Windchill Dew Point Humidity Pressure Visibility Wind Dir Wind Speed Gust Speed Precip Events Conditions
12:55 AM 36.0 °F - 15.1 °F 43% 29.70 in 10.0 mi Calm Calm - N/A   Partly Cloudy
1:55 AM 34.0 °F 31.0 °F 16.0 °F 48% 29.73 in 10.0 mi East 3.5 mph - N/A   Partly Cloudy
2:55 AM 33.1 °F 25.5 °F 16.0 °F 50% 29.73 in 10.0 mi WNW 9.2 mph - N/A   Partly Cloudy
3:55 AM 30.9 °F 26.2 °F 17.1 °F 57% 29.74 in 10.0 mi SSE 4.6 mph - N/A   Partly Cloudy
4:55 AM 32.0 °F 26.4 °F 17.1 °F 54% 29.74 in 10.0 mi East 5.8 mph - N/A   Scattered Clouds
5:55 AM 30.9 °F 27.5 °F 17.1 °F 57% 29.76 in 10.0 mi South 3.5 mph - N/A   Scattered Clouds
6:55 AM 30.0 °F 26.5 °F 18.0 °F 61% 29.78 in 10.0 mi East 3.5 mph - N/A   Mostly Cloudy
7:55 AM 35.1 °F - 18.0 °F 50% 29.78 in 10.0 mi Calm Calm - N/A   Mostly Cloudy
8:55 AM 37.0 °F 31.6 °F 19.0 °F 48% 29.81 in 10.0 mi ENE 6.9 mph - N/A   Mostly Cloudy
9:55 AM 39.0 °F 34.0 °F 18.0 °F 43% 29.80 in 10.0 mi NNE 6.9 mph - N/A   Mostly Cloudy
10:55 AM 42.1 °F 37.7 °F 19.9 °F 41% 29.80 in 10.0 mi East 6.9 mph - N/A   Overcast
11:55 AM 44.1 °F 42.5 °F 19.0 °F 37% 29.79 in 10.0 mi Variable 3.5 mph - 0.00 in   Unknown
12:41 PM 39.9 °F 32.5 °F 25.0 °F 55% 29.82 in 2.5 mi SSE 12.7 mph - 0.00 in   Unknown
12:48 PM 39.9 °F 33.4 °F 28.0 °F 63% 29.82 in 7.0 mi SSE 10.4 mph - 0.00 in   Unknown
12:55 PM 39.9 °F 36.7 °F 26.1 °F 58% 29.81 in 7.0 mi Variable 4.6 mph - 0.00 in Rain Light Rain
1:55 PM 44.1 °F 40.8 °F 23.0 °F 43% 29.78 in 10.0 mi WNW 5.8 mph - 0.00 in   Mostly Cloudy
2:55 PM 48.0 °F - 17.1 °F 29% 29.75 in 10.0 mi Variable 3.5 mph - N/A   Mostly Cloudy
3:55 PM 46.9 °F - 17.1 °F 30% 29.74 in 10.0 mi West 16.1 mph 21.9 mph N/A   Mostly Cloudy
4:55 PM 48.0 °F - 16.0 °F 28% 29.74 in 10.0 mi West 11.5 mph 19.6 mph N/A   Mostly Cloudy
5:55 PM 45.0 °F 37.6 °F 19.9 °F 37% 29.74 in 10.0 mi WNW 17.3 mph 27.6 mph N/A   Mostly Cloudy
6:55 PM 42.1 °F 36.1 °F 19.9 °F 41% 29.76 in 10.0 mi West 10.4 mph - N/A   Mostly Cloudy
7:55 PM 41.0 °F 37.1 °F 18.0 °F 40% 29.76 in 10.0 mi WNW 5.8 mph - N/A   Mostly Cloudy
8:55 PM 39.9 °F 36.7 °F 18.0 °F 41% 29.78 in 10.0 mi North 4.6 mph - N/A   Mostly Cloudy
9:55 PM 39.0 °F - 19.0 °F 45% 29.80 in 10.0 mi Calm Calm - N/A   Scattered Clouds
10:55 PM 37.0 °F 31.6 °F 21.0 °F 52% 29.80 in 10.0 mi North 6.9 mph - N/A   Scattered Clouds
11:55 PM 36.0 °F 31.1 °F 21.0 °F 55% 29.81 in 10.0 mi NNE 5.8 mph - N/A   Scattered Clouds